Location: Aufkirchen
(47.9603°N, 11.3653°E)
Time: 11:25:04
(UTC+02:00)

Altair - Pass Details

Date: 06 August 2021
Orbit: 1501 x 1682 km, 47.2° (Epoch: 18 September)

Event Time Altitude Azimuth Distance (km) Brightness Sun altitude
Exits shadow 00:00:58 22° 115° (ESE) 2,899 8.5 -22.9°
Drops below altitude 10° 00:05:58 10° 84° (E) 3,708 9.4 -23.2°
Sets 00:09:44 0° 71° (ENE) 4,672 10.1 -23.4°
